Location: Northam
(31.6525°S, 116.6655°E)
Time: 03:16:42
(UTC+08:00)

STARLINK-1838 - Pass Details

Date: 17 January 2021
Orbit: 489 x 491 km, 53.1° (Epoch: 28 February)

Event Time Altitude Azimuth Distance (km) Brightness Sun altitude
Rises 21:36:02 0° 234° (SW) 2,588 8.4 -24.1°
Reaches altitude 10° 21:38:28 10° 244° (WSW) 1,682 7.0 -24.5°
Enters shadow 21:41:08 28° 283° (WNW) 925 5.0 -24.8°
